Back to catalog

SINOD-D 3

AliveScienceLEO
NORAD 40977·PAYLOAD·🇺🇸 United States

Launched Oct 8, 2015 from Vandenberg Space Force Base

Loading…

Next Passes (next 24 hours)

TLE

FreshSource: Space-Track

Epoch: Sep 14, 2026, 06:01 UTC

1 40977U 15058P   26257.25131723  .00001855  00000-0  16055-3 0  9991
2 40977  64.7742 357.5662 0126618  24.2562 336.4440 14.94561996128063

Track SINOD-D 3 in real time with AllMySat

Download on the App Store